Change the Weather History Date:

Saturday, February 22, 2014

  Actual Average (KLSE) Record (KLSE)
Temperature  
Mean Temperature 14 °F 25 °F  
Max Temperature 21 °F 34 °F 62 °F (1984)
Min Temperature 8 °F 16 °F -22 °F (1873)
Degree Days  
Heating Degree Days 50 40  
Month to date heating degree days 959  
Since 1 July heating degree days 5278  
Cooling Degree Days 0 0  
Month to date cooling degree days 0  
Year to date cooling degree days 0  
Moisture  
Dew Point 6 °F    
Average Humidity 72    
Maximum Humidity 81    
Minimum Humidity 58    
Precipitation  
Precipitation 0.00 in 0.04 in 2.05 in (1922)
Month to date precipitation 0.78  
Year to date precipitation 1.90  
Snow  
Snow 0.00 in 0.20 in 8.80 in (1928)
Month to date snowfall 6.5  
Since 1 July snowfall 32.8  
Snow Depth -    
Sea Level Pressure  
Sea Level Pressure 29.92 in    
Wind  
Wind Speed 13 mph (West)    
Max Wind Speed 18 mph    
Max Gust Speed 26 mph    
Visibility 10 miles    
Events      
T = Trace of Precipitation, MM = Missing Value Source: NWS Daily Summary

Daily Weather History Graph

Daily Weather History Graph

Search for Another Location

Airport or City:

Trip Planner

Search our weather history database for the weather conditions in past years. The results will help you decide how hot, cold, wet, or windy it might be!

Date:

Astronomy

Feb. 22, 2014 Rise Set
Actual Time 6:51 AM CST 5:43 PM CST
Civil Twilight 6:22 AM CST 6:12 PM CST
Nautical Twilight 5:49 AM CST 6:45 PM CST
Astronomical Twilight 5:16 AM CST 7:18 PM CST
Moon 12:51 AM CST (2/22) 10:49 AM CST (2/22)
Length of Visible Light 11h 50m
Length of Day
10h 51m
Waning Gibbous, 50% of the Moon is Illuminated
Feb 22
Waning Gibbous
Mar 1
New
Mar 8
First Quarter
Mar 16
Full
Mar 23
Last Quarter

Hourly Weather History & Observations

Time (CST) Temp. Windchill Dew Point Humidity Pressure Visibility Wind Dir Wind Speed Gust Speed Precip Events Conditions
12:16 AM 15.6 °F 1.2 °F 9.3 °F 76% 29.74 in 10.0 mi West 13.8 mph 18.4 mph N/A   Clear
12:35 AM 15.3 °F 1.4 °F 9.1 °F 77% 29.74 in 10.0 mi West 12.7 mph - N/A   Clear
12:55 AM 14.9 °F 0.9 °F 9.0 °F 77% 29.75 in 10.0 mi West 12.7 mph 24.2 mph N/A   Clear
1:15 AM 14.7 °F 0.1 °F 8.6 °F 77% 29.75 in 10.0 mi West 13.8 mph 21.9 mph N/A   Clear
1:35 AM 14.5 °F -0.2 °F 8.6 °F 77% 29.76 in 10.0 mi West 13.8 mph - N/A   Clear
1:55 AM 14.5 °F -1.8 °F 8.2 °F 76% 29.77 in 10.0 mi West 17.3 mph 26.5 mph N/A   Clear
2:15 AM 14.0 °F -2.0 °F 7.9 °F 77% 29.78 in 10.0 mi West 16.1 mph 20.7 mph N/A   Clear
2:35 AM 13.8 °F -2.2 °F 7.7 °F 77% 29.77 in 10.0 mi West 16.1 mph 20.7 mph N/A   Clear
2:55 AM 13.5 °F -0.9 °F 7.3 °F 77% 29.78 in 10.0 mi West 12.7 mph 18.4 mph N/A   Clear
3:15 AM 13.1 °F -3.1 °F 6.8 °F 76% 29.79 in 10.0 mi West 16.1 mph 20.7 mph N/A   Clear
3:35 AM 12.2 °F -1.8 °F 6.4 °F 78% 29.80 in 10.0 mi West 11.5 mph - N/A   Clear
3:56 AM 12.2 °F -3.1 °F 6.3 °F 77% 29.81 in 10.0 mi West 13.8 mph 18.4 mph N/A   Clear
4:15 AM 11.7 °F -3.2 °F 5.7 °F 77% 29.81 in 10.0 mi West 12.7 mph - N/A   Clear
4:35 AM 11.3 °F -2.2 °F 5.5 °F 78% 29.81 in 10.0 mi West 10.4 mph - N/A   Clear
4:55 AM 11.3 °F -3.6 °F 5.5 °F 78% 29.83 in 10.0 mi West 12.7 mph 18.4 mph N/A   Clear
5:15 AM 10.8 °F -2.8 °F 5.2 °F 78% 29.83 in 10.0 mi WSW 10.4 mph - N/A   Clear
5:35 AM 9.5 °F -5.2 °F 4.6 °F 81% 29.85 in 10.0 mi WSW 11.5 mph - N/A   Clear
5:55 AM 9.5 °F -5.2 °F 4.8 °F 81% 29.86 in 10.0 mi West 11.5 mph - N/A   Clear
6:15 AM 9.7 °F -5.7 °F 4.8 °F 81% 29.86 in 10.0 mi West 12.7 mph - N/A   Clear
6:35 AM 9.5 °F -6.6 °F 4.5 °F 80% 29.86 in 10.0 mi West 13.8 mph - N/A   Clear
6:55 AM 9.1 °F -4.9 °F 4.1 °F 80% 29.86 in 10.0 mi West 10.4 mph 19.6 mph N/A   Clear
7:15 AM 9.0 °F -4.2 °F 3.9 °F 80% 29.88 in 10.0 mi West 9.2 mph - N/A   Clear
7:36 AM 9.3 °F -3.8 °F 3.9 °F 79% 29.89 in 10.0 mi West 9.2 mph - N/A   Clear
7:55 AM 10.0 °F -4.5 °F 3.9 °F 76% 29.90 in 10.0 mi West 11.5 mph - N/A   Clear
8:15 AM 10.8 °F -2.8 °F 3.9 °F 74% 29.91 in 10.0 mi West 10.4 mph - N/A   Clear
8:35 AM 11.3 °F -1.3 °F 4.1 °F 73% 29.90 in 10.0 mi WNW 9.2 mph - N/A   Clear
8:55 AM 12.6 °F 1.1 °F 4.5 °F 70% 29.90 in 10.0 mi WNW 8.1 mph - N/A   Clear
9:15 AM 13.6 °F -0.7 °F 5.0 °F 68% 29.92 in 10.0 mi West 12.7 mph - N/A   Clear
9:35 AM 14.0 °F 0.5 °F 4.8 °F 67% 29.92 in 10.0 mi WNW 11.5 mph - N/A   Clear
9:55 AM 14.7 °F 2.1 °F 5.4 °F 66% 29.93 in 10.0 mi WNW 10.4 mph - N/A   Clear
10:15 AM 15.4 °F 2.3 °F 5.2 °F 64% 29.94 in 10.0 mi West 11.5 mph - N/A   Clear
10:35 AM 15.8 °F 1.4 °F 5.4 °F 63% 29.94 in 10.0 mi WNW 13.8 mph 18.4 mph N/A   Clear
10:55 AM 17.2 °F 3.9 °F 6.3 °F 62% 29.94 in 10.0 mi WNW 12.7 mph 20.7 mph N/A   Clear
11:16 AM 17.6 °F 4.3 °F 6.6 °F 62% 29.94 in 10.0 mi West 12.7 mph - N/A   Clear
11:35 AM 18.5 °F 6.1 °F 6.6 °F 60% 29.94 in 10.0 mi WNW 11.5 mph - N/A   Clear
11:55 AM 19.6 °F 8.1 °F 7.7 °F 60% 29.94 in 10.0 mi West 10.4 mph - N/A   Clear
12:15 PM 19.8 °F 7.1 °F 7.5 °F 59% 29.94 in 10.0 mi West 12.7 mph 17.3 mph N/A   Clear
12:35 PM 19.9 °F 5.7 °F 7.7 °F 59% 29.93 in 10.0 mi West 16.1 mph 21.9 mph N/A   Clear
12:55 PM 20.3 °F 6.1 °F 8.2 °F 60% 29.93 in 10.0 mi West 16.1 mph - N/A   Clear
1:15 PM 20.8 °F 7.3 °F 8.2 °F 58% 29.92 in 10.0 mi West 15.0 mph - N/A   Clear
1:35 PM 21.0 °F 9.9 °F 8.6 °F 59% 29.92 in 10.0 mi West 10.4 mph - N/A   Clear
1:55 PM 21.0 °F 7.1 °F 9.0 °F 60% 29.93 in 10.0 mi WSW 16.1 mph - N/A   Clear
2:15 PM 20.7 °F 7.6 °F 9.1 °F 61% 29.93 in 10.0 mi West 13.8 mph - N/A   Clear
2:35 PM 20.3 °F 7.2 °F 9.1 °F 62% 29.93 in 10.0 mi WSW 13.8 mph - N/A   Clear
2:54 PM 20.5 °F 7.4 °F 9.1 °F 62% 29.93 in 10.0 mi WSW 13.8 mph - N/A   Clear
3:15 PM 20.3 °F 8.3 °F 7.9 °F 59% 29.94 in 10.0 mi West 11.5 mph - N/A   Clear
3:35 PM 20.3 °F 5.2 °F 8.4 °F 60% 29.94 in 10.0 mi West 18.4 mph - N/A   Clear
3:55 PM 19.4 °F 4.1 °F 7.9 °F 61% 29.95 in 10.0 mi West 18.4 mph - N/A   Clear
4:15 PM 18.9 °F 5.3 °F 7.9 °F 62% 29.95 in 10.0 mi West 13.8 mph - N/A   Clear
4:35 PM 18.5 °F 6.8 °F 7.5 °F 62% 29.94 in 10.0 mi West 10.4 mph - N/A   Clear
4:55 PM 17.6 °F 4.3 °F 7.7 °F 65% 29.95 in 10.0 mi West 12.7 mph - N/A   Clear
5:15 PM 16.7 °F 2.0 °F 7.3 °F 67% 29.95 in 10.0 mi West 15.0 mph - N/A   Clear
5:35 PM 15.4 °F 1.6 °F 6.8 °F 69% 29.96 in 10.0 mi West 12.7 mph - N/A   Clear
5:55 PM 14.4 °F 1.6 °F 6.4 °F 71% 29.97 in 10.0 mi West 10.4 mph - N/A   Clear
6:15 PM 13.8 °F 0.2 °F 6.1 °F 71% 29.98 in 10.0 mi West 11.5 mph - N/A   Clear
6:34 PM 12.9 °F -0.9 °F 5.9 °F 74% 29.99 in 10.0 mi West 11.5 mph - N/A   Clear
6:55 PM 12.2 °F -1.8 °F 5.7 °F 75% 30.00 in 10.0 mi West 11.5 mph - N/A   Clear
7:15 PM 11.7 °F -1.7 °F 5.5 °F 76% 30.00 in 10.0 mi West 10.4 mph - N/A   Clear
7:35 PM 11.3 °F -1.3 °F 5.2 °F 76% 30.01 in 10.0 mi West 9.2 mph - N/A   Clear
7:55 PM 10.9 °F -0.8 °F 4.8 °F 76% 30.02 in 10.0 mi West 8.1 mph - N/A   Clear
8:15 PM 10.4 °F -1.5 °F 4.8 °F 78% 30.03 in 10.0 mi West 8.1 mph - N/A   Clear
8:35 PM 10.4 °F -3.3 °F 4.8 °F 78% 30.03 in 10.0 mi West 10.4 mph - N/A   Clear
8:55 PM 10.2 °F -3.5 °F 4.1 °F 76% 30.03 in 10.0 mi West 10.4 mph - N/A   Clear
9:15 PM 9.9 °F -3.1 °F 3.9 °F 77% 30.04 in 10.0 mi West 9.2 mph - N/A   Clear
9:35 PM 9.9 °F -4.0 °F 3.9 °F 77% 30.04 in 10.0 mi West 10.4 mph - N/A   Clear
9:55 PM 9.9 °F -4.7 °F 4.1 °F 78% 30.04 in 10.0 mi West 11.5 mph - N/A   Clear
10:16 PM 9.3 °F -5.4 °F 3.9 °F 79% 30.05 in 10.0 mi West 11.5 mph - N/A   Clear
10:35 PM 9.1 °F -4.9 °F 3.9 °F 79% 30.04 in 10.0 mi West 10.4 mph - N/A   Clear
10:55 PM 9.1 °F -5.6 °F 3.7 °F 79% 30.05 in 10.0 mi West 11.5 mph - N/A   Clear
11:15 PM 9.1 °F -5.6 °F 3.7 °F 79% 30.05 in 10.0 mi West 11.5 mph - N/A   Clear
11:35 PM 8.4 °F -5.7 °F 3.2 °F 79% 30.05 in 10.0 mi West 10.4 mph - N/A   Clear
11:55 PM 8.8 °F -6.8 °F 2.8 °F 77% 30.05 in 10.0 mi WNW 12.7 mph - N/A   Clear